TimeEDT,TemperatureF,Dew PointF,Humidity,Sea Level PressureIn,VisibilityMPH,Wind Direction,Wind SpeedMPH,Gust SpeedMPH,PrecipitationIn,Events,Conditions,WindDirDegrees,DateUTC
12:53 AM,64.9,53.1,65,29.92,10.0,SSW,6.9,-,N/A,,Clear,200,2012-10-06 04:53:00
1:53 AM,64.9,53.1,65,29.91,10.0,SSW,6.9,-,N/A,,Clear,200,2012-10-06 05:53:00
2:53 AM,64.9,53.1,65,29.88,10.0,SSW,8.1,-,N/A,,Clear,200,2012-10-06 06:53:00
3:53 AM,64.0,53.1,67,29.86,10.0,South,5.8,-,N/A,,Clear,190,2012-10-06 07:53:00
4:53 AM,64.0,54.0,70,29.86,10.0,SW,5.8,-,N/A,,Clear,220,2012-10-06 08:53:00
5:53 AM,63.0,54.0,72,29.85,10.0,SSW,8.1,-,N/A,,Clear,210,2012-10-06 09:53:00
6:53 AM,63.0,54.0,72,29.85,10.0,SW,5.8,-,N/A,,Clear,220,2012-10-06 10:53:00
7:53 AM,62.1,54.0,75,29.84,10.0,SSW,5.8,-,N/A,,Clear,200,2012-10-06 11:53:00
8:53 AM,66.0,55.9,70,29.84,10.0,Calm,Calm,-,N/A,,Scattered Clouds,0,2012-10-06 12:53:00
9:53 AM,64.9,55.9,73,29.84,10.0,West,5.8,-,N/A,,Overcast,260,2012-10-06 13:53:00
10:53 AM,66.9,55.9,68,29.85,10.0,WSW,6.9,-,N/A,,Mostly Cloudy,250,2012-10-06 14:53:00
11:53 AM,68.0,55.9,65,29.86,10.0,West,8.1,-,N/A,,Overcast,260,2012-10-06 15:53:00
12:53 PM,66.9,55.0,66,29.88,10.0,WNW,8.1,20.7,N/A,,Overcast,290,2012-10-06 16:53:00
1:53 PM,66.9,51.1,57,29.89,10.0,WNW,13.8,24.2,N/A,,Mostly Cloudy,300,2012-10-06 17:53:00
2:53 PM,66.0,46.0,48,29.91,10.0,West,13.8,20.7,N/A,,Clear,280,2012-10-06 18:53:00
3:53 PM,63.0,46.0,54,29.94,10.0,NW,10.4,25.3,N/A,,Mostly Cloudy,320,2012-10-06 19:53:00
4:53 PM,61.0,43.0,52,29.94,10.0,NW,12.7,18.4,N/A,,Partly Cloudy,320,2012-10-06 20:53:00
5:53 PM,59.0,41.0,51,29.97,10.0,West,4.6,-,N/A,,Clear,280,2012-10-06 21:53:00
6:53 PM,55.0,42.1,62,29.99,10.0,Calm,Calm,-,N/A,,Clear,0,2012-10-06 22:53:00
7:53 PM,52.0,42.1,69,30.01,10.0,Calm,Calm,-,N/A,,Clear,0,2012-10-06 23:53:00
8:53 PM,48.0,43.0,83,30.04,10.0,Calm,Calm,-,N/A,,Clear,0,2012-10-07 00:53:00
9:53 PM,46.0,42.1,86,30.06,10.0,Calm,Calm,-,N/A,,Clear,0,2012-10-07 01:53:00
10:53 PM,46.9,42.1,83,30.07,10.0,WNW,3.5,-,N/A,,Clear,300,2012-10-07 02:53:00